Time,TemperatureF,DewpointF,PressureIn,WindDirection,WindDirectionDegrees,WindSpeedMPH,WindSpeedGustMPH,Humidity,HourlyPrecipIn,Conditions,Clouds,dailyrainin,SoftwareType,DateUTC
2013-01-30 00:02:00,69.0,68.0,29.95,SSE,164,0.0,3.0,96,0.12,,,0.13,,2013-01-30 06:02:00,
2013-01-30 00:11:00,69.0,68.0,29.95,SSE,164,0.0,3.0,96,0.12,,,0.13,,2013-01-30 06:11:00,
2013-01-30 00:21:00,70.0,69.0,29.95,SSE,153,1.0,6.0,96,0.03,,,0.13,,2013-01-30 06:21:00,
2013-01-30 00:32:00,70.0,69.0,29.94,SE,128,0.0,1.0,96,0.00,,,0.13,,2013-01-30 06:32:00,
2013-01-30 00:42:00,70.0,69.0,29.94,SE,128,0.0,1.0,96,0.00,,,0.13,,2013-01-30 06:42:00,
2013-01-30 00:51:00,70.0,69.0,29.94,SE,128,0.0,3.0,96,0.00,,,0.13,,2013-01-30 06:51:00,
2013-01-30 01:02:00,70.0,69.0,29.94,SE,128,0.0,3.0,96,0.00,,,0.13,,2013-01-30 07:02:00,
2013-01-30 01:11:00,70.0,69.0,29.94,SE,128,0.0,3.0,96,0.00,,,0.13,,2013-01-30 07:11:00,
2013-01-30 01:21:00,71.0,70.0,29.92,South,178,0.0,1.0,97,0.00,,,0.13,,2013-01-30 07:21:00,
2013-01-30 01:32:00,71.0,70.0,29.91,SSE,160,0.0,5.0,97,0.00,,,0.13,,2013-01-30 07:32:00,
2013-01-30 01:42:00,71.0,70.0,29.91,SSE,160,0.0,5.0,97,0.00,,,0.13,,2013-01-30 07:42:00,
2013-01-30 01:52:00,71.0,70.0,29.91,SSE,161,0.0,2.0,97,0.00,,,0.13,,2013-01-30 07:52:00,
2013-01-30 02:01:00,71.0,70.0,29.91,SSW,209,0.0,3.0,97,0.00,,,0.13,,2013-01-30 08:01:00,
2013-01-30 02:11:00,71.0,70.0,29.91,SSW,209,0.0,3.0,97,0.00,,,0.13,,2013-01-30 08:11:00,
2013-01-30 02:21:00,71.0,70.0,29.91,NNE,15,0.0,6.0,97,0.00,,,0.13,,2013-01-30 08:21:00,
2013-01-30 02:32:00,71.0,70.0,29.91,NNE,15,0.0,6.0,97,0.00,,,0.13,,2013-01-30 08:32:00,
2013-01-30 02:42:00,71.0,70.0,29.91,NNE,15,0.0,6.0,97,0.00,,,0.13,,2013-01-30 08:42:00,
2013-01-30 02:52:00,71.0,70.0,29.90,SSW,196,0.0,3.0,97,0.00,,,0.13,,2013-01-30 08:52:00,
2013-01-30 03:01:00,71.0,70.0,29.89,South,172,0.0,9.0,97,0.00,,,0.13,,2013-01-30 09:01:00,
2013-01-30 03:11:00,71.0,70.0,29.89,South,172,0.0,9.0,97,0.00,,,0.13,,2013-01-30 09:11:00,
2013-01-30 03:21:00,71.0,70.0,29.88,SSE,155,0.0,3.0,97,0.00,,,0.13,,2013-01-30 09:21:00,
2013-01-30 03:32:00,71.0,70.0,29.88,South,185,1.0,14.0,97,0.00,,,0.13,,2013-01-30 09:32:00,
2013-01-30 03:42:00,71.0,70.0,29.88,South,185,1.0,14.0,97,0.00,,,0.13,,2013-01-30 09:42:00,
2013-01-30 03:52:00,71.0,70.0,29.89,SW,235,1.0,8.0,97,0.00,,,0.13,,2013-01-30 09:52:00,
2013-01-30 04:01:00,71.0,70.0,29.88,SSE,163,0.0,2.0,97,0.00,,,0.13,,2013-01-30 10:01:00,
2013-01-30 04:11:00,71.0,70.0,29.88,SSE,163,0.0,2.0,97,0.00,,,0.13,,2013-01-30 10:11:00,
2013-01-30 04:21:00,71.0,70.0,29.87,SE,138,0.0,3.0,97,0.00,,,0.13,,2013-01-30 10:21:00,
2013-01-30 04:31:00,71.0,70.0,29.86,WSW,239,0.0,6.0,97,0.00,,,0.13,,2013-01-30 10:31:00,
2013-01-30 04:41:00,71.0,70.0,29.86,WSW,239,0.0,6.0,97,0.00,,,0.13,,2013-01-30 10:41:00,
2013-01-30 04:52:00,71.0,70.0,29.85,South,172,0.0,0.0,97,0.00,,,0.13,,2013-01-30 10:52:00,
2013-01-30 05:02:00,71.0,70.0,29.83,ESE,105,0.0,2.0,97,0.00,,,0.13,,2013-01-30 11:02:00,
2013-01-30 05:11:00,71.0,70.0,29.83,ESE,105,0.0,2.0,97,0.00,,,0.13,,2013-01-30 11:11:00,
2013-01-30 05:22:00,71.0,70.0,29.82,South,184,0.0,13.0,97,0.00,,,0.13,,2013-01-30 11:22:00,
2013-01-30 05:32:00,71.0,70.0,29.82,South,173,1.0,3.0,97,0.00,,,0.13,,2013-01-30 11:32:00,
2013-01-30 05:42:00,71.0,70.0,29.82,South,173,1.0,3.0,97,0.00,,,0.13,,2013-01-30 11:42:00,
2013-01-30 05:52:00,71.0,70.0,29.81,SSE,151,2.0,12.0,97,0.00,,,0.13,,2013-01-30 11:52:00,
2013-01-30 06:02:00,71.0,70.0,29.80,South,173,1.0,3.0,96,0.00,,,0.13,,2013-01-30 12:02:00,
2013-01-30 06:12:00,71.0,70.0,29.80,South,173,1.0,3.0,96,0.00,,,0.13,,2013-01-30 12:12:00,
2013-01-30 06:22:00,71.0,70.0,29.80,WNW,286,0.0,9.0,96,0.00,,,0.13,,2013-01-30 12:22:00,
2013-01-30 06:32:00,71.0,70.0,29.82,North,350,0.0,3.0,96,0.00,,,0.13,,2013-01-30 12:32:00,
2013-01-30 06:42:00,71.0,70.0,29.82,North,350,0.0,3.0,96,0.00,,,0.13,,2013-01-30 12:42:00,
2013-01-30 07:03:00,71.0,70.0,29.82,SE,140,0.0,4.0,96,0.00,,,0.13,,2013-01-30 13:03:00,
2013-01-30 07:12:00,71.0,70.0,29.82,SE,140,0.0,4.0,96,0.00,,,0.13,,2013-01-30 13:12:00,
2013-01-30 07:23:00,71.0,70.0,29.82,North,10,1.0,12.0,96,0.00,,,0.13,,2013-01-30 13:23:00,
2013-01-30 07:32:00,71.0,70.0,29.82,North,10,1.0,12.0,96,0.00,,,0.13,,2013-01-30 13:32:00,
2013-01-30 07:42:00,71.0,70.0,29.82,North,10,1.0,12.0,96,0.00,,,0.13,,2013-01-30 13:42:00,
2013-01-30 07:53:00,71.0,70.0,29.81,WSW,253,3.0,9.0,96,0.01,,,0.14,,2013-01-30 13:53:00,
2013-01-30 08:02:00,71.0,70.0,29.81,SSE,168,6.0,10.0,96,0.01,,,0.14,,2013-01-30 14:02:00,
2013-01-30 08:12:00,71.0,70.0,29.81,SSE,168,6.0,10.0,96,0.01,,,0.14,,2013-01-30 14:12:00,
2013-01-30 08:22:00,72.0,70.0,29.80,East,101,2.0,3.0,95,0.01,,,0.14,,2013-01-30 14:22:00,
2013-01-30 08:32:00,72.0,71.0,29.80,SSE,156,9.0,13.0,96,0.01,,,0.14,,2013-01-30 14:32:00,
2013-01-30 08:42:00,72.0,71.0,29.80,SSE,156,9.0,13.0,96,0.01,,,0.14,,2013-01-30 14:42:00,
2013-01-30 08:53:00,72.0,70.0,29.80,SSW,194,3.0,10.0,95,0.00,,,0.14,,2013-01-30 14:53:00,
2013-01-30 09:03:00,72.0,70.0,29.80,SSW,194,3.0,10.0,95,0.00,,,0.14,,2013-01-30 15:03:00,
2013-01-30 09:12:00,72.0,70.0,29.80,SSW,194,3.0,10.0,95,0.00,,,0.14,,2013-01-30 15:12:00,
2013-01-30 09:23:00,72.0,70.0,29.80,SE,133,0.0,3.0,95,0.00,,,0.14,,2013-01-30 15:23:00,
2013-01-30 09:33:00,72.0,70.0,29.80,South,183,0.0,5.0,95,0.00,,,0.14,,2013-01-30 15:33:00,
2013-01-30 09:43:00,72.0,70.0,29.80,South,183,0.0,5.0,95,0.00,,,0.14,,2013-01-30 15:43:00,
2013-01-30 09:53:00,73.0,71.0,29.80,SSW,192,5.0,5.0,94,0.00,,,0.14,,2013-01-30 15:53:00,
2013-01-30 10:03:00,73.0,71.0,29.80,South,184,2.0,4.0,94,0.00,,,0.14,,2013-01-30 16:03:00,
2013-01-30 10:12:00,73.0,71.0,29.80,South,184,2.0,4.0,94,0.00,,,0.14,,2013-01-30 16:12:00,
2013-01-30 10:23:00,73.0,71.0,29.79,WSW,244,0.0,4.0,94,0.00,,,0.14,,2013-01-30 16:23:00,
2013-01-30 10:32:00,74.0,72.0,29.79,ENE,73,3.0,5.0,93,0.00,,,0.14,,2013-01-30 16:32:00,
2013-01-30 10:42:00,74.0,72.0,29.79,ENE,73,3.0,5.0,93,0.00,,,0.14,,2013-01-30 16:42:00,
2013-01-30 10:52:00,74.0,72.0,29.79,ENE,73,3.0,5.0,93,0.00,,,0.14,,2013-01-30 16:52:00,
2013-01-30 11:02:00,74.0,72.0,29.78,SSE,168,2.0,9.0,92,0.00,,,0.14,,2013-01-30 17:02:00,
2013-01-30 11:12:00,74.0,72.0,29.78,SSE,168,2.0,9.0,92,0.00,,,0.14,,2013-01-30 17:12:00,
2013-01-30 11:22:00,74.0,72.0,29.77,SSW,207,6.0,10.0,92,0.00,,,0.14,,2013-01-30 17:22:00,
2013-01-30 11:33:00,74.0,72.0,29.77,SSW,207,6.0,10.0,92,0.00,,,0.14,,2013-01-30 17:33:00,
2013-01-30 11:42:00,74.0,72.0,29.77,SSW,207,6.0,10.0,92,0.00,,,0.14,,2013-01-30 17:42:00,
2013-01-30 11:53:00,74.0,71.0,29.76,NNE,27,2.0,16.0,91,0.00,,,0.14,,2013-01-30 17:53:00,
2013-01-30 12:02:00,75.0,72.0,29.76,East,94,1.0,17.0,90,0.00,,,0.14,,2013-01-30 18:02:00,
2013-01-30 12:12:00,75.0,72.0,29.76,East,94,1.0,17.0,90,0.00,,,0.14,,2013-01-30 18:12:00,
2013-01-30 12:22:00,75.0,72.0,29.73,SSW,198,2.0,6.0,89,0.00,,,0.14,,2013-01-30 18:22:00,
2013-01-30 12:33:00,76.0,73.0,29.72,SSE,168,11.0,17.0,89,0.00,,,0.14,,2013-01-30 18:33:00,
2013-01-30 12:42:00,76.0,73.0,29.72,SSE,168,11.0,17.0,89,0.00,,,0.14,,2013-01-30 18:42:00,
2013-01-30 12:53:00,76.0,72.0,29.71,East,92,4.0,10.0,88,0.01,,,0.15,,2013-01-30 18:53:00,
2013-01-30 13:02:00,76.0,72.0,29.71,East,92,4.0,10.0,88,0.01,,,0.15,,2013-01-30 19:02:00,
2013-01-30 13:12:00,76.0,72.0,29.71,East,92,4.0,10.0,88,0.01,,,0.15,,2013-01-30 19:12:00,
2013-01-30 13:22:00,76.0,72.0,29.69,South,180,3.0,26.0,87,0.01,,,0.15,,2013-01-30 19:22:00,
2013-01-30 13:32:00,76.0,72.0,29.69,South,180,3.0,26.0,87,0.01,,,0.15,,2013-01-30 19:32:00,
2013-01-30 13:43:00,76.0,72.0,29.69,South,180,3.0,26.0,87,0.01,,,0.15,,2013-01-30 19:43:00,
2013-01-30 13:53:00,76.0,72.0,29.68,SW,225,21.0,24.0,86,0.01,,,0.15,,2013-01-30 19:53:00,
2013-01-30 14:03:00,77.0,72.0,29.67,NNW,327,3.0,23.0,84,0.00,,,0.15,,2013-01-30 20:03:00,
2013-01-30 14:12:00,77.0,72.0,29.67,NNW,327,3.0,23.0,84,0.00,,,0.15,,2013-01-30 20:12:00,
2013-01-30 14:22:00,74.0,71.0,29.66,South,177,5.0,13.0,90,0.02,,,0.17,,2013-01-30 20:22:00,
2013-01-30 14:33:00,73.0,71.0,29.66,SE,144,0.0,8.0,92,0.05,,,0.20,,2013-01-30 20:33:00,
2013-01-30 14:42:00,73.0,71.0,29.66,SE,144,0.0,8.0,92,0.05,,,0.20,,2013-01-30 20:42:00,
2013-01-30 14:53:00,70.0,66.0,29.70,WNW,288,12.0,17.0,87,0.17,,,0.32,,2013-01-30 20:53:00,
2013-01-30 15:03:00,63.0,60.0,29.72,WSW,242,11.0,11.0,90,0.19,,,0.34,,2013-01-30 21:03:00,
2013-01-30 15:12:00,63.0,60.0,29.72,WSW,242,11.0,11.0,90,0.19,,,0.34,,2013-01-30 21:12:00,
2013-01-30 15:23:00,60.0,58.0,29.75,WSW,244,8.0,10.0,92,0.17,,,0.34,,2013-01-30 21:23:00,
2013-01-30 15:32:00,60.0,58.0,29.75,WSW,244,8.0,10.0,92,0.17,,,0.34,,2013-01-30 21:32:00,
2013-01-30 15:42:00,60.0,58.0,29.75,WSW,244,8.0,10.0,92,0.17,,,0.34,,2013-01-30 21:42:00,
2013-01-30 15:52:00,56.0,54.0,29.79,West,272,0.0,6.0,92,0.05,,,0.35,,2013-01-30 21:52:00,
2013-01-30 16:02:00,56.0,54.0,29.79,West,272,0.0,6.0,92,0.05,,,0.35,,2013-01-30 22:02:00,
2013-01-30 16:12:00,56.0,54.0,29.79,West,272,0.0,6.0,92,0.05,,,0.35,,2013-01-30 22:12:00,
2013-01-30 16:22:00,56.0,54.0,29.79,West,272,0.0,6.0,92,0.05,,,0.35,,2013-01-30 22:22:00,
2013-01-30 16:32:00,54.0,52.0,29.80,West,263,0.0,4.0,92,0.03,,,0.37,,2013-01-30 22:32:00,
2013-01-30 16:43:00,54.0,52.0,29.80,West,263,0.0,4.0,92,0.03,,,0.37,,2013-01-30 22:43:00,
2013-01-30 16:53:00,54.0,52.0,29.80,SW,231,3.0,4.0,92,0.02,,,0.37,,2013-01-30 22:53:00,
2013-01-30 17:02:00,54.0,52.0,29.80,SW,231,3.0,4.0,92,0.02,,,0.37,,2013-01-30 23:02:00,
2013-01-30 17:12:00,54.0,52.0,29.80,SW,231,3.0,4.0,92,0.02,,,0.37,,2013-01-30 23:12:00,
2013-01-30 17:22:00,53.0,51.0,29.84,WSW,244,4.0,4.0,92,0.00,,,0.37,,2013-01-30 23:22:00,
2013-01-30 17:32:00,52.0,50.0,29.82,West,263,1.0,5.0,92,0.00,,,0.37,,2013-01-30 23:32:00,
2013-01-30 17:42:00,52.0,50.0,29.82,West,263,1.0,5.0,92,0.00,,,0.37,,2013-01-30 23:42:00,
2013-01-30 17:52:00,51.0,49.0,29.82,WSW,254,2.0,5.0,92,0.01,,,0.38,,2013-01-30 23:52:00,
2013-01-30 18:02:00,51.0,49.0,29.83,West,268,0.0,0.0,92,0.01,,,0.38,,2013-01-31 00:02:00,
2013-01-30 18:11:00,51.0,49.0,29.83,West,268,0.0,0.0,92,0.01,,,0.38,,2013-01-31 00:11:00,
2013-01-30 18:22:00,51.0,49.0,29.82,West,261,0.0,0.0,92,0.01,,,0.38,,2013-01-31 00:22:00,
2013-01-30 18:32:00,51.0,49.0,29.85,West,265,4.0,6.0,92,0.01,,,0.38,,2013-01-31 00:32:00,
2013-01-30 18:42:00,51.0,49.0,29.85,West,265,4.0,6.0,92,0.01,,,0.38,,2013-01-31 00:42:00,
2013-01-30 18:53:00,51.0,49.0,29.85,WSW,256,2.0,4.0,93,0.00,,,0.38,,2013-01-31 00:53:00,
2013-01-30 19:02:00,51.0,49.0,29.85,WSW,256,2.0,4.0,93,0.00,,,0.38,,2013-01-31 01:02:00,
2013-01-30 19:11:00,51.0,49.0,29.85,WSW,256,2.0,4.0,93,0.00,,,0.38,,2013-01-31 01:11:00,
2013-01-30 19:21:00,52.0,50.0,29.87,WNW,290,0.0,4.0,93,0.01,,,0.39,,2013-01-31 01:21:00,
2013-01-30 19:31:00,52.0,50.0,29.88,West,263,3.0,4.0,93,0.02,,,0.40,,2013-01-31 01:31:00,
2013-01-30 19:42:00,52.0,50.0,29.88,West,263,3.0,4.0,93,0.02,,,0.40,,2013-01-31 01:42:00,
2013-01-30 19:52:00,52.0,50.0,29.91,SW,227,0.0,3.0,94,0.02,,,0.40,,2013-01-31 01:52:00,
2013-01-30 20:01:00,52.0,50.0,29.91,West,259,0.0,2.0,94,0.02,,,0.40,,2013-01-31 02:01:00,
2013-01-30 20:11:00,52.0,50.0,29.91,West,259,0.0,2.0,94,0.02,,,0.40,,2013-01-31 02:11:00,
2013-01-30 20:21:00,52.0,50.0,29.91,West,271,2.0,6.0,94,0.02,,,0.40,,2013-01-31 02:21:00,
2013-01-30 20:32:00,52.0,50.0,29.92,West,261,6.0,6.0,94,0.01,,,0.40,,2013-01-31 02:32:00,
2013-01-30 20:41:00,52.0,50.0,29.92,West,261,6.0,6.0,94,0.01,,,0.40,,2013-01-31 02:41:00,
2013-01-30 20:52:00,52.0,50.0,29.92,West,261,6.0,6.0,94,0.01,,,0.40,,2013-01-31 02:52:00,
2013-01-30 21:03:00,51.0,49.0,29.94,WNW,293,3.0,6.0,92,0.00,,,0.40,,2013-01-31 03:03:00,
2013-01-30 21:11:00,51.0,49.0,29.94,WNW,293,3.0,6.0,92,0.00,,,0.40,,2013-01-31 03:11:00,
2013-01-30 21:21:00,50.0,47.0,29.96,West,262,2.0,3.0,88,0.00,,,0.40,,2013-01-31 03:21:00,
2013-01-30 21:32:00,50.0,46.0,29.97,WSW,242,0.0,3.0,86,0.00,,,0.40,,2013-01-31 03:32:00,
2013-01-30 21:41:00,50.0,46.0,29.97,WSW,242,0.0,3.0,86,0.00,,,0.40,,2013-01-31 03:41:00,
2013-01-30 21:52:00,50.0,46.0,29.98,West,269,0.0,2.0,85,0.00,,,0.40,,2013-01-31 03:52:00,
2013-01-30 22:02:00,50.0,45.0,29.99,WSW,240,8.0,10.0,84,0.00,,,0.40,,2013-01-31 04:02:00,
2013-01-30 22:11:00,50.0,45.0,29.99,WSW,240,8.0,10.0,84,0.00,,,0.40,,2013-01-31 04:11:00,
2013-01-30 22:22:00,49.0,44.0,30.00,WNW,285,3.0,8.0,83,0.00,,,0.40,,2013-01-31 04:22:00,
2013-01-30 22:31:00,49.0,44.0,30.00,WNW,285,3.0,8.0,83,0.00,,,0.40,,2013-01-31 04:31:00,
2013-01-30 22:41:00,49.0,44.0,30.00,WNW,285,3.0,8.0,83,0.00,,,0.40,,2013-01-31 04:41:00,
2013-01-30 22:51:00,48.0,42.0,30.04,ENE,78,1.0,11.0,80,0.00,,,0.40,,2013-01-31 04:51:00,
2013-01-30 23:03:00,48.0,42.0,30.05,WNW,296,0.0,7.0,79,0.00,,,0.39,,2013-01-31 05:03:00,
2013-01-30 23:11:00,48.0,42.0,30.05,WNW,296,0.0,7.0,79,0.00,,,0.39,,2013-01-31 05:11:00,
2013-01-30 23:22:00,47.0,41.0,30.05,West,275,5.0,12.0,78,0.00,,,0.30,,2013-01-31 05:22:00,
2013-01-30 23:32:00,47.0,41.0,30.05,West,275,5.0,12.0,78,0.00,,,0.30,,2013-01-31 05:32:00,
2013-01-30 23:41:00,46.0,39.0,30.06,West,260,7.0,7.0,75,0.00,,,0.27,,2013-01-31 05:41:00,
2013-01-30 23:52:00,46.0,39.0,30.06,West,260,7.0,7.0,75,0.00,,,0.27,,2013-01-31 05:52:00,